Regional Weather Roundup
Issued by NWS

Home | Current Version | Previous Version | Text Only | Print | Product List | Glossary On
Versions: 1 2 3 4 5 6 7 8 9 10 11 12 13 14 15 16 17 18 19 20 21 22 23 24 25 26 27 28 29 30 31 32 33 34 35 36 37 38 39 40 41 42 43 44 45 46 47 48 49 50
000
ASUS45 KBOU 041107
RWRCO

WEATHER ROUNDUP FOR COLORADO
NATIONAL WEATHER SERVICE DENVER/BOULDER CO
500 AM MDT MON MAY 04 2015

NOTE: "FAIR" INDICATES FEW OR NO CLOUDS BELOW 12000 FEET WITH NO
SIGNIFICANT WEATHER AND/OR OBSTRUCTIONS TO VISIBILITY.

COZ001>005-013-030-031-041200-
...NORTHWEST COLORADO...

CITY           SKY/WX    TMP DP  RH WIND       PRES   REMARKS
CRAIG          CLOUDY    45  41  86 NW3       30.04F
HAYDEN         CLOUDY    48  36  61 E6        30.05F
MEEKER         MOCLDY    43  40  89 SW3       30.06R
MOUNT WERNER   NOT AVBL
STEAMBOAT SPGS CLOUDY    43  37  81 CALM      30.07S
WALDEN         PTCLDY    34  32  93 CALM      30.12F
$$

COZ006>008-011-041200-
...WEST CENTRAL VALLEYS...

CITY           SKY/WX    TMP DP  RH WIND       PRES   REMARKS
GRAND JUNCTION MOCLDY    54  42  64 E10       29.99S
MONTROSE       MOCLDY    46  38  73 CALM      30.06S
EAGLE          MOCLDY    39  37  93 SE6       30.12R
RIFLE          MOCLDY    47  45  93 CALM      30.05S
DELTA          MOCLDY    49  44  83 CALM      30.03S
NUCLA          CLOUDY    50  37  62 CALM      30.06S
$$

COZ017>023-064>068-041200-
...SOUTHWEST COLORADO...

CITY           SKY/WX    TMP DP  RH WIND       PRES   REMARKS
DURANGO        PTCLDY    35  33  92 E3        30.07S
CORTEZ         CLEAR     41  35  79 E7        30.04S
PAGOSA SPRINGS PTCLDY    37  36  99 CALM      30.12S
TELLURIDE      PTCLDY    38  35  88 SE3       30.18S
WOLF CREEK PAS NOT AVBL
$$

COZ009-010-012-014-032>034-037-058>063-041200-
...CENTRAL COLORADO...

CITY           SKY/WX    TMP DP  RH WIND       PRES   REMARKS
ASPEN          CLOUDY    39  36  89 CALM      30.10F
BUENA VISTA    NOT AVBL
COPPER MTN     CLOUDY    36  30  80 S6        30.27R
BERTHOUD PASS  HAZE      28  19  69 SE10      30.30S VSB<1/4 WCI  19
COTTONWOOD PAS FOG       37  36  93 CALM      30.21S VSB 1
GUNNISON       PTCLDY    39  36  87 CALM      30.18S
KREMMLING      PTCLDY    36  32  87 E3        30.12S
LEADVILLE      CLOUDY    35  33  92 CALM      30.19S
MONARCH PASS   SNOW      32  30  93 MISG      30.38S VSB<1/4
SALIDA         CLOUDY    47  41  80 CALM      30.22S
SUNLIGHT       MOCLDY    34  34 100 CALM      30.24S
WILKERSON PASS FOG       32  32 100 S5        30.28S VSB 1/4 WCI  27
$$

COZ069>075-041200-
...SAN LUIS VALLEY/SANGRE DE CRISTO MOUNTAINS...

CITY           SKY/WX    TMP DP  RH WIND       PRES   REMARKS
ALAMOSA        PTCLDY    37  34  89 NW6       30.12S
LA VETA PASS   FOG       36  34  93 MISG      30.22S VSB 1/4
SAGUACHE       CLOUDY    45  37  76 NW8       30.14S
$$

COZ035-036-038>040-041200-
...NORTHERN COLORADO FRONT RANGE...

CITY           SKY/WX    TMP DP  RH WIND       PRES   REMARKS
DENVER INTL AP CLOUDY    50  46  86 NE5       30.10R
DMNS CITY PARK   N/A     51  48  91 N3        30.10S
AURORA         MOCLDY    49  48  97 NE3       30.11S
FRONT RANGE AP NOT AVBL
ERIE MUNI ARPT DRIZZLE   51  49  94 CALM      30.10S
BOULDER MUN AP RAIN      48  48 100 CALM      30.10S
CENTENNIAL     CLOUDY    50  45  83 CALM      30.11R
BROOMFIELD     RAIN      50  46  87 CALM      30.11S
FORT COLLINS   CLOUDY    48  46  93 S3        30.12R
LONGMONT       RAIN      51  49  93 CALM      30.12R
$$

COZ041-046-047-076>085-087-088-041200-
...PIKES PEAK/PALMER DIVIDE AND SOUTHERN FOOTHILLS...

CITY           SKY/WX    TMP DP  RH WIND       PRES   REMARKS
COLO. SPRINGS  CLOUDY    49  46  90 N6        30.10F
A. F. ACADEMY  CLOUDY    47  47  99 NW5       30.11S
ELLICOTT       CLOUDY   N/A N/A N/A NE7       30.09S
FALCON         DRIZZLE   46  44  94 N9        30.13S
FORT CARSON    CLOUDY    48  46  93 N7        30.07F
LIMON          CLOUDY    49  46  90 NE7       30.08R
MONUMENT HILL  LGT RAIN  43  43 100 CALM      30.13S
TRINIDAD       PTCLDY    44  39  82 W9        30.08S
$$

COZ042>045-048>051-090-091-041200-
...NORTHEAST COLORADO...

CITY           SKY/WX    TMP DP  RH WIND       PRES   REMARKS
GREELEY ARPT   CLOUDY    52  43  71 SE3       30.11R
AKRON          CLOUDY    49  39  68 E10       30.06F
BURLINGTON     LGT RAIN  50  45  83 NE14      30.05R
WRAY           CLOUDY    53  39  61 NE5       30.05S
STERLING       CLOUDY    50  41  71 CALM      30.08R
HOLYOKE        NOT AVBL
FORT MORGAN    CLOUDY    50 -14   7 E7        30.09S
$$

COZ086-089-092>099-041200-
...SOUTHEAST COLORADO...

CITY           SKY/WX    TMP DP  RH WIND       PRES   REMARKS
PUEBLO         CLOUDY    55  47  74 NE10      30.04S
LA JUNTA       CLOUDY    55  49  80 NW7       30.02R
LAMAR          CLOUDY    52  49  89 N5        29.96S
SPRINGFIELD      N/A     49  46  90 W7        29.97S
$$



USA.gov is the U.S. government's official web portal to all federal, state and local government web resources and services.